Home > Weather > Hampton > Past weeks

Flag for USA Past Weather in Hampton, Virginia, USA — Yesterday and Last 2 Weeks

Now
79 °F

Scattered clouds.


Feels Like: 81 °F
Forecast: 70 / 77 °F
Wind: 10 mph from Northeast

Location: Langley Air Force Base

Current Time: Jun 25, 2016 at 3:42:35 PM

Latest Report: Jun 25, 2016 at 3:03 PM


Visibility: 9 mi

Pressure: 30.14 "Hg

Humidity: 70%

Dew Point: 68 °F

Location of HamptonLocation

Past Weather in Hampton — Graph

°F

Hampton Temperature Yesterday

Maximum temperature yesterday: 84 °F (at 2:58 PM)
Minimum temperature yesterday: 69 °F (at 5:58 AM)
Average temperature yesterday: 77 °F

High & Low Weather Summary for the Past Weeks

 TemperatureHumidityPressure
High92 °F (Jun 12, 1:58 PM)100% (Jun 17, 12:03 AM)30.39 "Hg (Jun 17, 12:03 AM)
Low58 °F (Jun 19, 5:58 AM)29% (Jun 12, 10:58 PM)29.67 "Hg (Jun 17, 2:58 AM)
Average75 °F71%29.99 "Hg
* Reported Jun 10 2:58 PM — Jun 25 2:03 PM, Hampton, Weather by CustomWeather, © 2016

Note: Actual official high and low records may vary slightly from our data, if they occured in-between our weather recording intervals... More about our weather records

Advertising

Hampton Weather History for the Previous 24 Hours

Scroll right to see more
 ConditionsComfort  
Time TempWeatherWind HumidityBarometerVisibility
2:03 PM
Sat, Jun 25
77 °FBroken clouds.10 mph79%30.14 "Hg9 mi
1:58 PM77 °FScattered clouds.10 mph76%30.16 "Hg9 mi
12:58 PM76 °FOvercast.10 mph78%30.16 "Hg10 mi
12:02 PM73 °FLight rain. Mostly cloudy.14 mph83%30.14 "Hg9 mi
11:58 AM74 °FMostly cloudy.14 mph84%30.16 "Hg10 mi
10:58 AM75 °FMostly cloudy.14 mph81%30.15 "Hg10 mi
9:58 AM75 °FOvercast.14 mph80%30.14 "Hg10 mi
8:58 AM74 °FOvercast.16 mph88%30.13 "Hg10 mi
7:58 AM73 °FOvercast.14 mph90%30.11 "Hg10 mi
7:03 AM73 °FBroken clouds.13 mph89%30.07 "Hg10 mi
5:58 AM73 °FOvercast.12 mph89%30.07 "Hg10 mi
5:03 AM73 °FMostly cloudy.14 mph89%30.02 "Hg10 mi
4:58 AM73 °FMostly cloudy.16 mph92%30.04 "Hg10 mi
3:58 AM73 °FMostly cloudy.15 mph93%30.03 "Hg10 mi
2:58 AM74 °FPassing clouds.12 mph95%30.02 "Hg10 mi
1:58 AM75 °FPartly cloudy.6 mph96%30.02 "Hg10 mi
12:58 AM76 °FPassing clouds.3 mph94%30.03 "Hg10 mi
11:58 PM
Fri, Jun 24
77 °FPassing clouds.5 mph88%30.02 "Hg10 mi
11:03 PM75 °FPassing clouds.1 mph89%29.99 "Hg9 mi
9:58 PM77 °FPassing clouds.5 mph82%29.99 "Hg10 mi
9:01 PM79 °FDrizzle. Partly sunny.5 mph79%29.97 "Hg10 mi
7:58 PM80 °FOvercast.5 mph82%29.96 "Hg10 mi
6:58 PM83 °FScattered clouds.5 mph71%29.96 "Hg10 mi
5:58 PM82 °FScattered clouds.3 mph72%29.95 "Hg10 mi
4:58 PM82 °FPartly sunny.6 mph72%29.96 "Hg10 mi
3:58 PM81 °FOvercast.9 mph72%29.96 "Hg10 mi
Weather by CustomWeather, © 2016

See weather overviewHow to use our weather pages